RH
64 60 61 56 56 60 64 73 77 61 69 66 78 89 94 96 96 97 97 96 88 90 88 89 88 91 94 90 93 97 96 92 84 92 99 92 92 89 87 83 78 76 78 73
74 60 54 55 60 60 68 69 68 67 57 55 60 82 90 95 96 97 98 97 94 90 88 85 88 95 96 97 97 98 98 90 91 95 92 98 90 89 90 86 81 79 76 76
75 67 70 64 53 59 59 59 63 70 57 57 56 63 82 88 94 97 98 97 97 94 92 95 94 97 97 96 97 94 96 96 97 99 98 99 96 93 93 89 87 81 79 79
82 77 82 53 56 55 56 55 61 62 60 62 57 50 70 84 86 92 96 97 98 96 96 95 96 97 97 97 95 94 96 97 98 98 99 97 98 99 97 91 86 86 85 85
87 85 65 64 61 60 61 52 60 64 62 64 60 53 58 72 79 84 93 96 97 99 96 98 99 99 96 94 95 97 96 97 97 97 98 99 98 98 96 92 91 89 89 88
89 92 88 59 63 66 67 69 63 63 66 69 64 64 53 55 68 76 89 94 96 96 95 98 93 94 93 95 96 95 96 97 97 97 98 98 98 99 95 93 92 95 94 90
91 94 80 70 71 73 75 60 60 60 67 70 70 63 54 51 59 69 76 90 92 91 91 93 93 91 96 96 96 97 96 96 97 97 98 98 99 99 98 94 96 96 94 93
97 97 87 70 68 67 60 66 69 70 69 71 69 62 58 49 51 66 74 82 92 90 87 88 91 92 94 94 96 95 96 96 97 97 96 97 98 99 99 99 99 99 99 97
83 77 70 69 68 64 62 64 65 64 68 70 68 63 53 51 53 60 74 82 90 93 89 89 90 92 94 92 93 96 96 96 95 94 95 97 97 98 99 98 99 99 99 99
90 84 77 72 68 61 60 60 63 66 66 66 63 62 58 55 53 59 68 80 88 91 92 91 90 92 93 94 94 95 95 91 94 94 96 96 97 98 98 98 99 99 98 98
91 82 73 69 61 56 57 59 62 62 61 61 61 61 60 58 55 56 63 72 83 91 90 90 90 88 90 93 92 94 94 92 92 95 96 96 97 97 97 98 98 98 99 97
76 63 60 61 57 57 58 59 60 60 60 61 62 64 64 62 59 58 60 66 76 86 91 89 88 88 92 95 93 92 92 91 94 95 96 96 96 98 96 98 98 98 99 98
61 61 62 58 57 57 60 61 62 62 60 61 64 64 65 66 64 61 59 62 72 82 89 92 90 90 91 92 96 92 93 94 95 96 97 96 96 96 96 98 98 98 98 99
61 56 52 55 57 60 60 59 58 60 62 63 64 66 66 68 70 68 63 61 64 75 86 88 89 89 90 89 92 94 95 94 96 96 96 95 96 97 96 97 97 98 98 99
53 45 45 48 51 54 56 58 60 62 64 67 67 67 68 69 72 73 71 67 64 69 79 87 86 86 88 86 87 92 94 94 97 96 96 96 97 97 95 97 96 97 98 98
47 46 46 48 51 53 54 56 59 62 65 69 70 70 70 71 74 75 75 74 70 67 73 82 86 86 85 87 86 87 91 94 95 93 94 96 96 95 95 97 96 97 97 98
44 48 49 49 49 53 56 58 60 62 62 65 68 71 74 74 75 77 77 77 76 72 70 78 82 86 85 85 86 87 87 90 94 96 95 94 96 96 96 96 96 96 96 97
42 45 49 49 48 50 52 53 56 60 65 68 70 75 78 79 79 79 80 80 81 79 77 75 78 81 86 83 84 85 84 86 91 94 96 97 97 96 95 96 96 96 96 97
43 45 46 49 53 54 54 54 55 56 64 69 71 75 82 83 85 85 84 83 84 83 81 78 74 77 80 83 82 83 82 82 87 90 93 96 96 96 96 96 96 96 97 96
46 49 50 51 53 53 52 52 53 55 63 67 69 76 81 86 90 89 88 87 88 88 86 83 79 76 77 77 79 78 82 82 83 87 88 90 94 97 96 96 96 96 96 96
49 49 50 52 54 56 55 56 58 62 69 73 73 76 79 86 91 92 91 91 91 90 88 86 84 81 77 75 72 76 78 81 83 84 86 88 89 94 96 96 96 96 96 96
49 51 53 54 55 57 59 60 65 70 74 77 78 79 82 84 92 93 94 95 95 94 91 86 86 85 80 74 74 76 76 78 80 83 84 86 87 90 95 96 96 96 96 97
51 53 54 56 58 59 60 65 71 75 78 80 82 83 84 84 91 93 94 97 98 98 96 93 90 87 84 80 77 77 77 76 79 80 83 85 87 90 92 96 97 96 97 96
52 54 55 58 59 61 66 71 75 77 80 81 85 86 86 85 87 93 96 100 100 98 96 96 96 92 88 85 81 78 76 79 78 79 80 82 85 89 91 94 97 97 97 97
52 53 55 57 62 67 71 74 78 80 83 84 84 87 88 87 86 91 95 100 100 99 95 93 97 98 94 90 87 84 81 77 79 80 79 81 85 87 90 92 95 97 97 97
51 52 56 60 64 69 73 76 78 80 82 84 85 89 89 89 88 88 93 97 100 100 98 90 90 97 99 98 93 89 86 83 80 80 80 79 80 84 87 90 93 96 98 98
52 57 59 62 66 69 73 76 77 80 81 81 84 89 90 90 88 87 89 92 98 99 98 96 91 93 99 99 99 97 93 90 86 82 80 81 82 83 84 88 91 94 97 98